1511834400.03,9454,7.31,72832.0,-10.89,-41.29,-41.35,0,*51
1511834401.29,9455,7.31,72830.3,-10.89,-41.23,-41.23,0,*5D
1511834402.53,9456,7.31,72830.8,-10.91,-41.17,-41.29,0,*5A
1511834403.76,9457,7.31,72828.8,-10.91,-41.11,-41.17,0,*50
1511834404.98,9458,7.31,72830.8,-10.89,-40.91,-41.03,0,*5A
1511834406.27,9459,7.31,72830.8,-10.91,-40.97,-40.97,0,*58
1511834407.53,9460,7.31,72828.8,-10.91,-40.79,-41.11,0,*5D
1511834408.74,9461,7.31,72830.5,-10.89,-40.73,-41.03,0,*5C
1511834410.0,9462,7.31,72828.8,-10.91,-40.79,-41.11,0,*5F
1511834411.21,9463,7.31,72828.5,-10.89,-40.73,-40.91,0,*54
1511834412.47,9464,7.31,72830.8,-10.91,-40.79,-40.91,0,*50
1511834413.71,9465,7.31,72830.5,-10.89,-40.85,-40.91,0,*5B
1511834414.98,9466,7.31,72828.8,-10.89,-41.23,-41.23,0,*5D
1511834416.19,9467,7.31,72830.8,-10.89,-41.03,-41.11,0,*5F
1511834417.41,9468,7.31,72828.8,-10.89,-40.91,-40.91,0,*53
1511834418.63,9469,7.31,72830.3,-10.89,-40.91,-41.03,0,*58
1511834419.87,9470,7.31,72828.8,-10.89,-40.73,-40.85,0,*53
1511834421.1,9471,7.31,72830.3,-10.87,-40.47,-40.65,0,*55
1511834422.33,9472,7.31,72828.3,-10.87,-40.53,-40.73,0,*54
1511834423.61,9473,7.31,72828.3,-10.83,-40.79,-40.97,0,*53
1511834424.86,9474,7.31,72830.3,-10.87,-41.03,-41.03,0,*50
1511834426.11,9475,7.31,72830.3,-10.87,-41.03,-41.03,0,*51
1511834427.4,9476,7.31,72834.3,-10.83,-40.85,-40.97,0,*55
1511834428.65,9477,7.31,72828.0,-10.83,-40.65,-40.85,0,*59
1511834429.91,9478,7.31,72828.8,-10.87,-40.65,-40.85,0,*52
1511834431.2,9479,7.31,72828.5,-10.83,-40.41,-40.59,0,*50
1511834432.44,9480,7.31,72830.0,-10.87,-40.47,-40.53,0,*5E
1511834433.67,9481,7.31,72834.0,-10.83,-40.47,-40.65,0,*5E
1511834434.92,9482,7.31,72828.8,-10.83,-40.65,-40.79,0,*50
1511834436.18,9483,7.31,72832.0,-10.83,-40.65,-40.85,0,*52
1511834437.41,9484,7.31,72830.3,-10.83,-40.47,-40.47,0,*5B
1511834438.68,9485,7.31,72830.5,-10.81,-40.41,-40.21,0,*5E
1511834439.94,9486,7.31,72834.5,-10.79,-40.41,-40.53,0,*5F
1511834441.19,9487,7.31,72826.8,-10.79,-40.21,-40.35,0,*58
1511834442.46,9488,7.31,72832.5,-10.79,-40.41,-40.53,0,*51
1511834443.72,9489,7.31,72832.3,-10.79,-40.35,-40.41,0,*50
1511834444.93,9490,7.31,72828.5,-10.77,-40.15,-40.15,0,*55
1511834446.16,9491,7.31,72828.5,-10.77,-40.35,-40.41,0,*57
1511834447.36,9492,7.31,72830.0,-10.77,-40.35,-40.35,0,*57
1511834448.63,9493,7.31,72830.0,-10.77,-40.41,-40.59,0,*5F
1511834449.83,9494,7.31,72828.0,-10.77,-40.35,-40.53,0,*51
1511834451.03,9495,7.31,72828.8,-10.77,-40.35,-40.35,0,*50
1511834452.26,9496,7.31,72828.3,-10.75,-40.35,-40.47,0,*54
1511834453.5,9497,7.31,72830.5,-10.75,-40.35,-40.47,0,*55
1511834454.75,9498,7.31,72830.3,-10.75,-40.29,-40.47,0,*57
1511834456.01,9499,7.31,72832.5,-10.75,-40.29,-40.35,0,*53
1511834457.24,9500,7.31,72834.3,-10.75,-40.35,-40.53,0,*5F
1511834458.47,9501,7.31,72828.8,-10.75,-40.47,-40.47,0,*5E
1511834459.7,9502,7.31,72830.8,-10.75,-40.53,-40.53,0,*5D
1511834460.96,9503,7.31,72830.8,-10.71,-40.29,-40.47,0,*50
1511834462.16,9504,7.31,72830.5,-10.73,-40.65,-40.65,0,*5D
1511834463.42,9505,7.31,72832.3,-10.71,-40.47,-40.59,0,*51
1511834464.66,9506,7.31,72830.3,-10.73,-40.47,-40.59,0,*50
1511834465.94,9507,7.31,72830.0,-10.71,-40.29,-40.41,0,*52
1511834467.2,9508,7.31,72832.3,-10.71,-40.41,-40.47,0,*55
1511834468.48,9509,7.31,72832.5,-10.71,-40.29,-40.41,0,*5C
1511834469.72,9510,7.31,72830.8,-10.73,-40.73,-40.85,0,*51
1511834471.01,9511,7.31,72826.5,-10.71,-40.41,-40.59,0,*52
1511834472.22,9512,7.31,72830.3,-10.69,-40.47,-40.65,0,*51
1511834473.48,9513,7.31,72830.8,-10.69,-40.59,-40.59,0,*50
1511834474.68,9514,7.31,72830.0,-10.69,-40.47,-40.47,0,*57
1511834475.92,9515,7.31,72830.0,-10.69,-40.47,-40.59,0,*59
1511834477.13,9516,7.31,72828.3,-10.69,-40.47,-40.65,0,*55
1511834478.35,9517,7.31,72830.8,-10.69,-40.65,-40.79,0,*59
1511834479.58,9518,7.31,72830.5,-10.69,-40.59,-40.65,0,*54
1511834480.81,9519,7.31,72828.0,-10.67,-40.53,-40.73,0,*56
1511834482.07,9520,7.31,72828.0,-10.67,-40.59,-40.73,0,*56
1511834483.3,9521,7.31,72828.3,-10.67,-40.53,-40.73,0,*5D
1511834484.56,9522,7.31,72836.0,-10.67,-40.41,-40.53,0,*5F
1511834485.77,9523,7.31,72830.5,-10.69,-40.47,-40.65,0,*53
1511834487.03,9524,7.31,72832.0,-10.67,-40.53,-40.59,0,*50
1511834488.28,9525,7.31,72830.0,-10.69,-40.59,-40.79,0,*57
1511834489.54,9526,7.31,72832.0,-10.67,-40.59,-40.73,0,*50
1511834490.79,9527,7.31,72832.0,-10.67,-40.79,-40.73,0,*53
1511834492.02,9528,7.31,72830.0,-10.69,-40.65,-40.79,0,*55
1511834493.3,9529,7.31,72834.0,-10.67,-40.79,-40.79,0,*57
1511834494.57,9530,7.31,72830.5,-10.67,-40.79,-40.79,0,*5F
1511834495.85,9531,7.31,72832.5,-10.67,-40.59,-40.79,0,*5C
1511834497.14,9532,7.31,72830.8,-10.67,-40.59,-40.79,0,*5F
1511834498.42,9533,7.31,72834.0,-10.67,-40.59,-40.79,0,*5E
1511834499.68,9534,7.31,72828.8,-10.67,-40.59,-40.73,0,*53
1511834500.9,9535,7.31,72830.5,-10.63,-40.53,-40.73,0,*5C
1511834502.11,9536,7.31,72832.8,-10.65,-40.73,-40.73,0,*5B
1511834503.34,9537,7.31,72828.3,-10.65,-40.53,-40.59,0,*50
1511834504.57,9538,7.31,72832.5,-10.65,-40.53,-40.59,0,*5F
1511834505.8,9539,7.31,72830.0,-10.65,-40.59,-40.73,0,*5C
1511834507.0,9540,7.31,72828.3,-10.65,-40.53,-40.73,0,*58
1511834508.26,9541,7.31,72832.5,-10.63,-40.59,-40.73,0,*55
1511834509.49,9542,7.31,72830.8,-10.65,-40.35,-40.41,0,*5B
1511834510.73,9543,7.31,72830.3,-10.65,-40.41,-40.73,0,*58
1511834511.96,9544,7.31,72828.5,-10.65,-40.53,-40.59,0,*54
1511834513.2,9545,7.25,72828.0,-10.63,-40.35,-40.53,0,*59
1511834514.43,9546,7.31,72834.5,-10.65,-40.53,-40.59,0,*56
1511834515.68,9547,7.31,72828.0,-10.63,-40.59,-40.73,0,*53
1511834516.92,9548,7.31,72832.8,-10.59,-40.47,-40.65,0,*5D
1511834518.15,9549,7.31,72830.5,-10.59,-40.47,-40.65,0,*5C
1511834519.38,9550,7.31,72832.8,-10.59,-40.47,-40.53,0,*51
1511834520.61,9551,7.31,72830.0,-10.59,-40.53,-40.65,0,*50
1511834521.84,9552,7.31,72828.8,-10.59,-40.53,-40.53,0,*56
1511834523.05,9553,7.31,72832.3,-10.57,-40.47,-40.47,0,*59
1511834524.28,9554,7.31,72832.8,-10.59,-40.65,-40.65,0,*50
1511834525.51,9555,7.31,72834.3,-10.59,-40.53,-40.65,0,*54
1511834526.73,9556,7.31,72828.8,-10.59,-40.53,-40.65,0,*57
1511834527.97,9557,7.31,72834.3,-10.59,-40.47,-40.65,0,*53
1511834529.2,9558,7.31,72832.0,-10.59,-40.73,-40.65,0,*5B
1511834530.42,9559,7.31,72830.5,-10.59,-40.65,-40.65,0,*5D
1511834531.66,9560,7.31,72828.5,-10.57,-40.47,-40.59,0,*56
1511834532.9,9561,7.31,72834.3,-10.57,-40.47,-40.59,0,*57
1511834534.13,9562,7.31,72832.3,-10.57,-40.29,-40.47,0,*53
1511834535.4,9563,7.31,72834.5,-10.57,-40.29,-40.41,0,*54
1511834536.62,9564,7.31,72828.8,-10.59,-40.53,-40.65,0,*56
1511834537.89,9565,7.31,72832.8,-10.57,-40.41,-40.59,0,*55
1511834539.1,9566,7.31,72830.0,-10.57,-40.47,-40.47,0,*5F
1511834540.36,9567,7.31,72828.3,-10.57,-40.41,-40.29,0,*50
1511834541.65,9568,7.31,72830.0,-10.55,-40.09,-40.29,0,*51
1511834542.94,9569,7.31,72830.3,-10.55,-40.09,-40.29,0,*50
1511834544.24,9570,7.31,72830.0,-10.55,-40.09,-40.41,0,*56
1511834545.5,9571,7.31,72830.8,-10.55,-40.41,-40.47,0,*5D
1511834546.77,9572,7.31,72828.8,-10.55,-40.79,-40.79,0,*58
1511834548.03,9573,7.31,72828.5,-10.53,-40.79,-40.79,0,*5F
1511834549.29,9574,7.31,72830.5,-10.55,-41.23,-41.11,0,*5F
1511834550.53,9575,7.31,72830.5,-10.55,-41.11,-41.11,0,*5F
1511834551.8,9576,7.31,72830.3,-10.55,-41.23,-41.11,0,*5D
1511834553.03,9577,7.31,72832.0,-10.55,-41.41,-41.41,0,*5D
1511834554.3,9578,7.31,72828.8,-10.53,-41.35,-41.55,0,*52
1511834555.54,9579,7.31,72832.3,-10.53,-41.55,-41.61,0,*52
1511834556.75,9580,7.31,72832.0,-10.53,-41.61,-41.73,0,*50
1511834557.99,9581,7.31,72828.0,-10.57,-41.67,-41.87,0,*58
1511834559.23,9582,7.31,72830.8,-10.59,-41.73,-41.73,0,*5B
1511834560.5,9583,7.31,72828.3,-10.57,-41.67,-41.67,0,*54
1511834561.75,9584,7.31,72832.8,-10.57,-41.61,-41.67,0,*55
1511834563.04,9585,7.31,72832.0,-10.59,-41.55,-41.67,0,*5D
1511834564.25,9586,7.31,72832.0,-10.57,-41.29,-41.41,0,*5F
1511834565.49,9587,7.31,72830.5,-10.57,-41.23,-41.29,0,*5A
1511834566.7,9588,7.31,72838.3,-10.57,-41.11,-41.29,0,*54
1511834567.94,9589,7.31,72832.8,-10.57,-41.41,-41.67,0,*5A
1511834569.2,9590,7.31,72834.0,-10.59,-41.35,-41.49,0,*53
1511834570.44,9591,7.31,72832.0,-10.59,-41.17,-41.11,0,*5F
1511834571.68,9592,7.31,72830.5,-10.59,-41.11,-41.11,0,*5A
1511834572.92,9593,7.31,72834.8,-10.59,-41.03,-41.11,0,*58
1511834574.16,9594,7.31,72834.3,-10.59,-41.11,-41.11,0,*5C
1511834575.37,9595,7.31,72832.8,-10.57,-41.03,-41.29,0,*5B
1511834576.61,9596,7.31,72832.0,-10.59,-41.29,-41.29,0,*5E
1511834577.84,9597,7.31,72830.0,-10.59,-41.29,-41.29,0,*5F
1511834579.07,9598,7.25,72828.5,-10.59,-41.17,-41.17,0,*50
1511834580.31,9599,7.31,72834.3,-10.59,-41.11,-41.17,0,*57
1511834581.54,9600,7.31,72834.0,-10.59,-41.11,-41.11,0,*52
1511834582.8,9601,7.31,72834.3,-10.63,-40.97,-41.11,0,*55
1511834584.04,9602,7.31,72832.0,-10.59,-41.11,-40.91,0,*59
1511834585.29,9603,7.31,72832.0,-10.59,-41.03,-41.03,0,*51
1511834586.52,9604,7.31,72832.8,-10.59,-41.11,-41.11,0,*56
1511834587.76,9605,7.31,72834.8,-10.59,-41.11,-41.17,0,*51
1511834589.03,9606,7.31,72832.5,-10.63,-40.91,-40.97,0,*5B
1511834590.26,9607,7.31,72832.3,-10.59,-40.73,-40.73,0,*55
1511834591.53,9608,7.31,72836.3,-10.59,-40.91,-40.85,0,*5F
1511834592.76,9609,7.31,72834.0,-10.57,-40.79,-40.65,0,*58
1511834594.0,9610,7.31,72832.0,-10.59,-40.91,-40.91,0,*53
1511834595.27,9611,7.25,72834.8,-10.57,-40.97,-40.97,0,*5C
1511834596.51,9612,7.31,72834.3,-10.59,-41.11,-40.91,0,*58
1511834597.78,9613,7.31,72832.8,-10.57,-40.97,-40.85,0,*5D
1511834599.05,9614,7.31,72836.5,-10.57,-40.85,-40.97,0,*5A
1511834600.27,9615,7.31,72832.8,-10.57,-41.03,-41.03,0,*58
1511834601.54,9616,7.25,72834.3,-10.57,-40.97,-40.97,0,*5B
1511834602.79,9617,7.31,72832.0,-10.59,-40.91,-40.91,0,*54
1511834604.04,9618,7.31,72832.8,-10.57,-40.79,-40.79,0,*55
1511834605.3,9619,7.31,72832.8,-10.57,-40.79,-40.97,0,*54
1511834606.52,9620,7.31,72832.5,-10.57,-41.03,-41.11,0,*5D
1511834607.76,9621,7.31,72834.8,-10.59,-41.17,-41.29,0,*5C
1511834609.0,9622,7.31,72836.0,-10.57,-41.23,-41.29,0,*56
1511834610.22,9623,7.31,72838.5,-10.57,-41.03,-41.11,0,*5E
1511834611.46,9624,7.31,72836.5,-10.57,-41.03,-41.23,0,*58
1511834612.72,9625,7.31,72836.3,-10.59,-41.29,-41.35,0,*58
1511834613.98,9626,7.31,72834.0,-10.59,-41.29,-41.35,0,*5B
1511834615.22,9627,7.31,72838.0,-10.57,-41.23,-41.29,0,*53
1511834616.43,9628,7.25,72836.5,-10.57,-41.17,-41.29,0,*5B
1511834617.68,9629,7.31,72836.0,-10.57,-41.03,-40.97,0,*5B
1511834618.93,9630,7.31,72840.0,-10.59,-40.91,-41.03,0,*5B
1511834620.15,9631,7.31,72836.0,-10.57,-41.03,-41.11,0,*5D
1511834621.36,9632,7.31,72836.3,-10.57,-41.11,-41.11,0,*5D
1511834622.58,9633,7.31,72836.0,-10.57,-41.03,-41.03,0,*5C
1511834623.85,9634,7.31,72836.5,-10.57,-40.97,-40.97,0,*5B
1511834625.08,9635,7.31,72832.5,-10.57,-40.79,-40.65,0,*57
1511834626.37,9636,7.31,72834.5,-10.59,-40.85,-40.85,0,*57
1511834627.6,9637,7.31,72834.0,-10.57,-41.03,-41.03,0,*58
1511834628.84,9638,7.31,72836.3,-10.55,-41.03,-41.29,0,*5D
1511834630.08,9639,7.31,72836.3,-10.55,-41.03,-41.11,0,*57
1511834631.3,9640,7.31,72836.8,-10.57,-41.03,-41.11,0,*5B
1511834632.53,9641,7.31,72832.3,-10.57,-41.23,-41.49,0,*55
1511834633.74,9642,7.31,72838.3,-10.57,-41.29,-41.41,0,*54
1511834634.98,9643,7.31,72836.5,-10.59,-41.17,-41.29,0,*58
1511834636.22,9644,7.31,72832.0,-10.57,-41.23,-41.29,0,*56
1511834637.43,9645,7.25,72832.8,-10.57,-41.11,-41.29,0,*56
1511834638.64,9646,7.31,72836.5,-10.57,-41.29,-41.41,0,*50
1511834639.88,9647,7.31,72838.0,-10.57,-41.11,-41.23,0,*5E
1511834641.13,9648,7.31,72834.0,-10.57,-40.79,-40.79,0,*50
1511834642.38,9649,7.31,72832.5,-10.57,-40.97,-41.03,0,*5D
1511834643.6,9650,7.31,72832.3,-10.57,-41.03,-40.91,0,*53
1511834644.87,9651,7.31,72834.0,-10.57,-40.85,-40.97,0,*5B
1511834646.09,9652,7.25,72830.5,-10.57,-40.65,-40.79,0,*56
1511834647.35,9653,7.31,72832.0,-10.59,-40.85,-40.73,0,*5D
1511834648.59,9654,7.31,72834.5,-10.57,-40.47,-40.59,0,*52
1511834649.86,9655,7.31,72832.8,-10.57,-40.59,-40.59,0,*5C
1511834651.1,9656,7.31,72838.0,-10.57,-40.47,-40.59,0,*50
1511834652.3,9657,7.31,72836.8,-10.57,-40.65,-40.65,0,*5E
1511834653.53,9658,7.31,72842.8,-10.55,-40.65,-40.65,0,*53
1511834654.78,9659,7.31,72836.0,-10.55,-40.79,-40.65,0,*5F
1511834656.07,9660,7.31,72838.8,-10.55,-40.59,-40.59,0,*58
1511834657.3,9661,7.25,72836.8,-10.53,-40.73,-40.59,0,*57
1511834658.55,9662,7.31,72838.5,-10.55,-40.65,-40.79,0,*57
1511834659.84,9663,7.31,72840.8,-10.55,-40.85,-40.85,0,*5B
1511834661.13,9664,7.31,72838.0,-10.55,-40.97,-40.85,0,*5F
1511834662.4,9665,7.31,72836.3,-10.55,-41.03,-40.97,0,*51
1511834663.67,9666,7.31,72836.0,-10.53,-40.97,-40.97,0,*58
1511834664.91,9667,7.31,72836.0,-10.53,-40.97,-41.03,0,*55
1511834666.15,9668,7.25,72836.3,-10.55,-41.11,-41.11,0,*50
1511834667.38,9669,7.31,72838.8,-10.55,-41.11,-41.41,0,*54
1511834668.65,9670,7.31,72838.3,-10.55,-41.23,-41.41,0,*5D
1511834669.89,9671,7.25,72834.0,-10.55,-41.41,-41.41,0,*58
1511834671.15,9672,7.31,72838.3,-10.55,-41.23,-41.29,0,*51
1511834672.44,9673,7.25,72836.8,-10.55,-41.23,-41.23,0,*5A
1511834673.7,9674,7.31,72836.8,-10.55,-41.23,-41.49,0,*51
1511834674.94,9675,7.31,72834.5,-10.55,-41.29,-41.41,0,*52
1511834676.17,9676,7.25,72834.8,-10.55,-41.41,-41.61,0,*5D
1511834677.44,9677,7.25,72836.8,-10.55,-41.61,-41.67,0,*58
1511834678.68,9678,7.25,72832.5,-10.57,-41.61,-41.67,0,*55
1511834679.89,9679,7.31,72838.0,-10.57,-41.61,-41.61,0,*52
1511834681.14,9680,7.25,72838.0,-10.57,-41.61,-41.67,0,*52
1511834682.38,9681,7.31,72838.0,-10.57,-41.49,-41.67,0,*59
1511834683.64,9682,7.31,72838.0,-10.59,-41.55,-41.73,0,*5C
1511834684.93,9683,7.31,72836.5,-10.59,-41.55,-41.67,0,*58
1511834686.17,9684,7.25,72838.8,-10.59,-41.17,-41.29,0,*53
1511834687.41,9685,7.31,72840.0,-10.57,-40.97,-41.03,0,*5D
1511834688.65,9686,7.25,72838.3,-10.59,-41.11,-41.17,0,*5A
1511834689.88,9687,7.31,72836.8,-10.59,-41.11,-41.11,0,*5D
1511834691.1,9688,7.31,72838.8,-10.57,-41.03,-41.11,0,*5F
1511834692.32,9689,7.31,72838.8,-10.57,-41.03,-41.03,0,*5D
1511834693.57,9690,7.31,72838.0,-10.59,-40.91,-40.91,0,*5B
1511834694.81,9691,7.31,72836.5,-10.59,-40.91,-41.03,0,*50
1511834696.05,9692,7.25,72836.5,-10.57,-40.97,-41.11,0,*58
1511834697.29,9693,7.25,72838.3,-10.59,-41.11,-41.11,0,*58
1511834698.52,9694,7.25,72838.5,-10.59,-41.17,-41.29,0,*52
1511834699.76,9695,7.25,72838.0,-10.57,-41.11,-41.23,0,*51
1511834701.02,9696,7.31,72836.3,-10.59,-41.17,-41.35,0,*5D
1511834702.28,9697,7.25,72836.5,-10.59,-41.29,-41.35,0,*51
1511834703.51,9698,7.25,72838.3,-10.59,-41.29,-41.49,0,*55
1511834704.75,9699,7.25,72838.3,-10.57,-41.11,-41.23,0,*5D
1511834705.98,9700,7.25,72834.3,-10.59,-41.17,-41.17,0,*53
1511834707.22,9701,7.25,72838.3,-10.59,-41.17,-41.29,0,*5F
1511834708.45,9702,7.25,72838.5,-10.59,-41.17,-41.29,0,*5C
1511834709.72,9703,7.25,72836.8,-10.59,-41.49,-41.67,0,*5C
1511834710.92,9704,7.25,72836.3,-10.57,-41.29,-41.49,0,*5F
1511834712.18,9705,7.25,72836.8,-10.59,-41.17,-41.35,0,*56
1511834713.39,9706,7.31,72838.0,-10.57,-41.41,-41.61,0,*59
1511834714.68,9707,7.31,72838.8,-10.59,-41.55,-41.55,0,*54
1511834715.94,9708,7.25,72836.0,-10.59,-41.29,-41.35,0,*56
1511834717.18,9709,7.25,72836.5,-10.59,-41.03,-41.11,0,*59
1511834718.4,9710,7.25,72832.5,-10.57,-41.03,-41.11,0,*5F
1511834719.65,9711,7.31,72838.3,-10.59,-40.91,-40.91,0,*53
1511834720.88,9712,7.31,72838.0,-10.59,-40.73,-40.73,0,*50
1511834722.11,9713,7.25,72834.5,-10.59,-40.65,-40.73,0,*56
1511834723.37,9714,7.31,72836.5,-10.59,-40.73,-40.85,0,*5F
1511834724.62,9715,7.31,72838.8,-10.59,-40.91,-40.91,0,*57
1511834725.89,9716,7.25,72832.5,-10.57,-40.97,-40.97,0,*5A
1511834727.12,9717,7.25,72834.8,-10.59,-41.29,-41.49,0,*53
1511834728.36,9718,7.25,72834.0,-10.57,-41.23,-41.29,0,*5E
1511834729.59,9719,7.25,72832.3,-10.57,-41.11,-41.23,0,*54
1511834730.86,9720,7.25,72830.0,-10.59,-40.85,-40.91,0,*54
1511834732.12,9721,7.25,72834.0,-10.57,-40.59,-40.79,0,*5C
1511834733.35,9722,7.31,72836.3,-10.57,-40.65,-40.79,0,*50
1511834734.58,9723,7.25,72834.8,-10.57,-40.73,-40.85,0,*55
1511834735.85,9724,7.25,72836.3,-10.57,-40.79,-40.85,0,*58
1511834737.1,9725,7.31,72838.0,-10.57,-40.85,-40.79,0,*59
1511834738.36,9726,7.31,72842.0,-10.55,-40.59,-40.65,0,*54
1511834739.63,9727,7.31,72836.3,-10.55,-40.85,-41.03,0,*55
1511834740.87,9728,7.31,72836.0,-10.55,-41.03,-41.11,0,*56
1511834742.13,9729,7.25,72834.8,-10.55,-41.23,-41.29,0,*5E
1511834743.36,9730,7.25,72834.5,-10.55,-41.29,-41.49,0,*5A
1511834744.62,9731,7.25,72832.8,-10.55,-41.29,-41.35,0,*50
1511834745.86,9732,7.25,72836.8,-10.57,-41.41,-41.67,0,*58
1511834747.07,9733,7.31,72842.8,-10.57,-41.41,-41.61,0,*5F
1511834748.35,9734,7.25,72838.5,-10.57,-41.67,-41.67,0,*5A
1511834749.58,9735,7.25,72834.8,-10.59,-41.73,-41.87,0,*5E
1511834750.8,9736,7.25,72836.8,-10.57,-41.87,-41.87,0,*58
1511834752.04,9737,7.25,72836.5,-10.59,-41.87,-41.87,0,*57
1511834753.28,9738,7.31,72838.0,-10.59,-41.73,-41.87,0,*53
1511834754.52,9739,7.31,72840.5,-10.59,-41.87,-41.87,0,*59
1511834755.76,9740,7.25,72838.0,-10.59,-41.87,-41.87,0,*57
1511834757.04,9741,7.25,72834.5,-10.63,-41.81,-41.93,0,*5C
1511834758.29,9742,7.25,72836.3,-10.63,-41.73,-41.81,0,*51
1511834759.52,9743,7.25,72836.5,-10.65,-41.73,-41.81,0,*56
1511834760.8,9744,7.25,72838.3,-10.63,-41.81,-41.93,0,*59
1511834762.02,9745,7.25,72838.3,-10.65,-41.73,-41.93,0,*53
1511834763.23,9746,7.25,72836.5,-10.65,-41.61,-41.73,0,*5D
1511834764.46,9747,7.25,72836.8,-10.65,-41.73,-41.81,0,*52
1511834765.68,9748,7.25,72838.5,-10.65,-41.41,-41.73,0,*51
1511834766.88,9749,7.25,72836.3,-10.65,-41.41,-41.61,0,*53
1511834768.12,9750,7.25,72836.8,-10.65,-41.41,-41.55,0,*5C
1511834769.39,9751,7.25,72838.0,-10.65,-41.23,-41.35,0,*5F
1511834770.63,9752,7.25,72836.8,-10.65,-41.35,-41.41,0,*58
1511834771.86,9753,7.25,72836.5,-10.65,-41.35,-41.61,0,*5B
1511834773.12,9754,7.31,72840.5,-10.65,-41.55,-41.81,0,*54
1511834774.35,9755,7.25,72840.5,-10.65,-41.55,-41.73,0,*58
1511834775.61,9756,7.25,72838.0,-10.65,-41.55,-41.81,0,*56
1511834776.87,9757,7.25,72838.0,-10.67,-41.55,-41.61,0,*5B
1511834778.13,9758,7.25,72842.5,-10.67,-41.73,-41.81,0,*5E
1511834779.37,9759,7.25,72840.5,-10.69,-41.67,-41.87,0,*52
1511834780.63,9760,7.25,72838.3,-10.69,-41.67,-41.81,0,*5E
1511834781.88,9761,7.25,72838.3,-10.69,-41.67,-41.81,0,*5F
1511834783.11,9762,7.25,72838.8,-10.69,-41.73,-41.81,0,*59
1511834784.37,9763,7.25,72842.5,-10.69,-41.81,-41.81,0,*55
1511834785.58,9764,7.25,72840.0,-10.69,-41.87,-41.99,0,*5D
1511834786.84,9765,7.31,72846.0,-10.69,-41.67,-41.81,0,*5B
1511834788.08,9766,7.25,72838.5,-10.71,-41.61,-41.87,0,*51
1511834789.29,9767,7.25,72842.3,-10.69,-41.41,-41.49,0,*59
1511834790.55,9768,7.25,72838.8,-10.71,-41.61,-41.67,0,*51
1511834791.81,9769,7.25,72838.8,-10.71,-41.49,-41.67,0,*5A
1511834793.04,9770,7.25,72838.8,-10.71,-41.29,-41.41,0,*50
1511834794.32,9771,7.25,72838.8,-10.73,-41.35,-41.67,0,*5A
1511834795.55,9772,7.25,72840.3,-10.71,-41.41,-41.61,0,*5E
1511834796.77,9773,7.31,72840.8,-10.71,-41.29,-41.61,0,*51
1511834798.0,9774,7.25,72836.8,-10.71,-41.29,-41.61,0,*56
1511834799.27,9775,7.31,72842.8,-10.73,-41.55,-41.67,0,*58
1511834800.52,9776,7.25,72840.3,-10.71,-41.61,-41.81,0,*56
1511834801.76,9777,7.25,72836.5,-10.73,-41.55,-41.73,0,*5F
1511834802.97,9778,7.25,72838.5,-10.73,-41.49,-41.61,0,*5E
1511834804.21,9779,7.25,72840.5,-10.73,-41.55,-41.73,0,*51
1511834805.47,9780,7.25,72840.8,-10.73,-41.67,-41.93,0,*58
1511834806.71,9781,7.25,72838.5,-10.73,-41.67,-41.87,0,*5C
1511834807.95,9782,7.31,72842.5,-10.73,-41.67,-41.73,0,*54
1511834809.19,9783,7.25,72840.3,-10.73,-41.55,-41.73,0,*54
1511834810.46,9784,7.25,72838.5,-10.75,-41.67,-41.73,0,*54
1511834811.74,9785,7.25,72840.5,-10.75,-41.67,-41.93,0,*5B
1511834813.01,9786,7.25,72842.0,-10.75,-41.67,-41.87,0,*5D
1511834814.24,9787,7.25,72840.3,-10.75,-41.73,-41.87,0,*59
1511834815.53,9788,7.25,72840.3,-10.75,-41.67,-41.93,0,*56
1511834816.79,9789,7.25,72842.0,-10.75,-41.67,-41.87,0,*52
1511834818.06,9790,7.25,72838.3,-10.75,-41.67,-41.87,0,*5A
1511834819.31,9791,7.25,72840.3,-10.77,-41.81,-41.93,0,*54
1511834820.57,9792,7.25,72842.0,-10.75,-41.55,-41.73,0,*52
1511834821.78,9793,7.25,72840.0,-10.77,-41.73,-41.99,0,*51
1511834823.0,9794,7.25,72842.5,-10.77,-41.61,-41.93,0,*5F
1511834824.2,9795,7.25,72842.5,-10.77,-41.73,-41.99,0,*57
1511834825.43,9796,7.25,72840.3,-10.77,-41.93,-41.99,0,*5A
1511834826.69,9797,7.25,72842.0,-10.77,-41.81,-41.93,0,*52
1511834827.95,9798,7.31,72846.0,-10.75,-41.67,-41.73,0,*59
1511834829.15,9799,7.25,72840.3,-10.77,-41.73,-41.99,0,*5B
1511834830.38,9800,7.25,72840.5,-10.77,-41.61,-41.93,0,*5D
1511834831.63,9801,7.25,72840.8,-10.79,-41.61,-41.93,0,*52
1511834832.87,9802,7.31,72842.3,-10.81,-41.67,-41.87,0,*55
1511834834.11,9803,7.25,72840.3,-10.81,-41.61,-41.81,0,*54
1511834835.34,9804,7.25,72840.3,-10.79,-41.41,-41.61,0,*58
1511834836.55,9805,7.25,72840.8,-10.81,-41.49,-41.61,0,*56
1511834837.79,9806,7.25,72842.0,-10.79,-41.41,-41.41,0,*58
1511834839.05,9807,7.31,72840.5,-10.79,-41.41,-41.55,0,*5C
1511834840.34,9808,7.25,72842.0,-10.79,-41.35,-41.55,0,*50
1511834841.6,9809,7.25,72842.8,-10.79,-41.55,-41.73,0,*53
1511834842.84,9810,7.25,72842.0,-10.81,-41.67,-41.87,0,*56
1511834844.1,9811,7.25,72840.3,-10.79,-41.73,-41.81,0,*53
1511834845.33,9812,7.25,72840.3,-10.81,-41.49,-41.81,0,*5E
1511834846.57,9813,7.25,72840.0,-10.79,-41.41,-41.41,0,*5C
1511834847.78,9814,7.25,72840.3,-10.81,-41.41,-41.41,0,*5C
1511834849.02,9815,7.25,72840.5,-10.81,-41.61,-41.67,0,*5B
1511834850.26,9816,7.25,72842.3,-10.81,-41.61,-41.81,0,*50
1511834851.47,9817,7.25,72840.8,-10.81,-41.61,-41.87,0,*57
1511834852.71,9818,7.25,72840.3,-10.81,-41.61,-41.81,0,*5E
1511834853.95,9819,7.25,72840.5,-10.81,-41.67,-41.87,0,*5F
1511834855.21,9820,7.25,72844.0,-10.81,-41.81,-41.81,0,*5B
1511834856.48,9821,7.25,72840.8,-10.83,-41.61,-41.67,0,*5E
1511834857.73,9822,7.25,72838.3,-10.83,-41.61,-41.81,0,*55
1511834858.99,9823,7.25,72840.0,-10.83,-41.61,-41.81,0,*54
1511834860.23,9824,7.25,72840.0,-10.87,-41.73,-41.87,0,*52
1511834861.51,9825,7.25,72840.5,-10.83,-41.67,-42.05,0,*5B
1511834862.77,9826,7.25,72840.0,-10.83,-41.81,-41.99,0,*56
1511834864.05,9827,7.25,72844.5,-10.87,-41.93,-41.93,0,*5A
1511834865.31,9828,7.25,72844.8,-10.87,-42.05,-42.13,0,*52
1511834866.57,9829,7.25,72840.8,-10.87,-41.93,-42.13,0,*5F
1511834867.82,9830,7.25,72836.8,-10.87,-41.93,-42.13,0,*57
1511834869.05,9831,7.25,72840.8,-10.89,-42.05,-42.13,0,*54
1511834870.31,9832,7.25,72840.0,-10.87,-41.93,-42.13,0,*55
1511834871.59,9833,7.25,72844.5,-10.87,-41.93,-42.05,0,*53
1511834872.82,9834,7.25,72842.3,-10.89,-41.73,-42.05,0,*54
1511834874.03,9835,7.25,72840.5,-10.89,-41.73,-42.13,0,*52
1511834875.26,9836,7.25,72838.3,-10.89,-41.87,-41.93,0,*51
1511834876.52,9837,7.25,72840.3,-10.91,-41.93,-42.13,0,*57
1511834877.78,9838,7.25,72838.8,-10.91,-41.81,-41.99,0,*5A
1511834879.04,9839,7.25,72842.5,-10.91,-41.93,-41.99,0,*58
1511834880.3,9840,7.25,72838.0,-10.91,-41.99,-42.19,0,*57
1511834881.53,9841,7.25,72838.0,-10.91,-41.99,-42.13,0,*5C
1511834882.81,9842,7.25,72840.0,-10.91,-41.81,-41.93,0,*5D
1511834884.1,9843,7.25,72842.5,-10.91,-41.81,-41.93,0,*5C
1511834885.36,9844,7.25,72840.5,-10.91,-41.81,-41.99,0,*51
1511834886.61,9845,7.25,72840.0,-10.91,-41.61,-41.81,0,*57
1511834887.82,9846,7.25,72838.5,-10.93,-41.41,-41.41,0,*58
1511834889.09,9847,7.25,72836.0,-10.95,-41.61,-41.67,0,*59
1511834890.32,9848,7.25,72840.3,-10.93,-41.73,-41.81,0,*5B
1511834891.52,9849,7.25,72836.5,-10.93,-41.61,-41.61,0,*57
1511834892.75,9850,7.25,72838.5,-10.93,-41.73,-41.81,0,*52
1511834894.01,9851,7.25,72836.0,-10.95,-41.67,-41.99,0,*59
1511834895.24,9852,7.31,72840.5,-10.93,-41.55,-41.61,0,*5A
1511834896.49,9853,7.25,72836.0,-10.93,-41.55,-41.81,0,*55
1511834897.76,9854,7.25,72838.0,-10.95,-41.61,-41.67,0,*5B
1511834899.02,9855,7.25,72840.5,-10.93,-41.35,-41.55,0,*5C
1511834900.28,9856,7.25,72836.8,-10.95,-41.35,-41.41,0,*5C
1511834901.55,9857,7.25,72842.3,-10.93,-41.35,-41.55,0,*5E
1511834902.78,9858,7.25,72836.8,-10.93,-41.49,-41.55,0,*5A
1511834904.01,9859,7.25,72842.5,-10.93,-41.49,-41.35,0,*5D
1511834905.27,9860,7.25,72840.5,-10.93,-41.55,-41.55,0,*5C